Weather History for PAGL - February, 2013

Change the Weather History Date:

Monday, February 18, 2013

  Actual Average Record
Temperature  
Mean Temperature -12 °F -  
Max Temperature 1 °F - - ()
Min Temperature -25 °F - - ()
Degree Days  
Heating Degree Days 77    
Moisture  
Dew Point -22 °F    
Average Humidity 52    
Maximum Humidity 100    
Minimum Humidity 7    
Precipitation  
Precipitation 0.00 in - - ()
Sea Level Pressure  
Sea Level Pressure 30.29 in    
Wind  
Wind Speed 10 mph (North)    
Max Wind Speed 26 mph    
Max Gust Speed 31 mph    
Visibility 10 miles    
Events      
T = Trace of Precipitation, MM = Missing Value Source: NWS Daily Summary

Daily Weather History Graph

Daily Weather History Graph

Search for Another Location

Airport or City:

Trip Planner

Search our weather history database for the weather conditions in past years. The results will help you decide how hot, cold, wet, or windy it might be!

Date:

Astronomy

Feb. 18, 2013 Rise Set
Actual Time 9:37 AM AKST 6:35 PM AKST
Civil Twilight 8:46 AM AKST 7:27 PM AKST
Nautical Twilight 7:50 AM AKST 8:23 PM AKST
Astronomical Twilight 6:53 AM AKST 9:19 PM AKST
Moon 11:11 AM AKST (2/18) 5:45 AM AKST (2/18)
Length of Visible Light 10h 40m
Length of Day
8h 58m
First Quarter, 60% of the Moon is Illuminated
Feb 18
First Quarter
Feb 25
Full
Mar 4
Last Quarter
Mar 11
New
Mar 19
First Quarter

Hourly Weather History & Observations

Time (AKST) Temp. Windchill Dew Point Humidity Pressure Visibility Wind Dir Wind Speed Gust Speed Precip Events Conditions
12:16 AM -22.0 °F -35.6 °F - N/A% 30.47 in 10.0 mi NNW 4.6 mph - N/A   Clear
12:36 AM -20.2 °F -37.3 °F -29.2 °F 63% 30.47 in 10.0 mi North 6.9 mph - N/A   Clear
12:56 AM -18.4 °F -36.6 °F -25.6 °F 70% 30.47 in 10.0 mi North 8.1 mph - N/A   Clear
1:16 AM -18.4 °F -36.6 °F - N/A% 30.46 in 10.0 mi North 8.1 mph - N/A   Clear
1:36 AM -18.4 °F -35.1 °F -23.8 °F 76% 30.46 in 10.0 mi NNE 6.9 mph - N/A   Clear
1:56 AM -16.6 °F -32.9 °F - N/A% 30.45 in 10.0 mi North 6.9 mph - N/A   Clear
2:16 AM -16.6 °F -35.7 °F -27.4 °F 58% 30.44 in 10.0 mi NW 9.2 mph - N/A   Clear
2:36 AM -18.4 °F -39.1 °F - N/A% 30.43 in 10.0 mi NW 10.4 mph - N/A   Clear
2:56 AM -20.2 °F -40.1 °F -25.6 °F 76% 30.43 in 10.0 mi NW 9.2 mph - N/A   Clear
3:16 AM -22.0 °F -44.7 °F - N/A% 30.43 in 10.0 mi NW 11.5 mph - N/A   Clear
3:36 AM -25.6 °F -49.2 °F - N/A% 30.43 in 10.0 mi NW 11.5 mph - N/A   Clear
3:56 AM -23.8 °F -45.8 °F - N/A% 30.43 in 10.0 mi NW 10.4 mph - N/A   Clear
4:16 AM -23.8 °F -45.8 °F - N/A% 30.43 in 10.0 mi NW 10.4 mph - N/A   Clear
4:36 AM -23.8 °F -45.8 °F - N/A% 30.43 in 10.0 mi NNW 10.4 mph - N/A   Clear
4:56 AM -22.0 °F -42.3 °F -22.0 °F 100% 30.42 in 10.0 mi North 9.2 mph - N/A   Clear
5:16 AM -20.2 °F -35.5 °F - N/A% 30.42 in 10.0 mi North 5.8 mph - N/A   Clear
5:36 AM -23.8 °F -37.7 °F - N/A% 30.42 in 10.0 mi WNW 4.6 mph - N/A   Clear
5:56 AM -20.2 °F -30.9 °F -67.0 °F 7% 30.42 in 10.0 mi WNW 3.5 mph - N/A   Clear
6:16 AM -20.2 °F -33.5 °F - N/A% 30.42 in 10.0 mi NW 4.6 mph - N/A   Clear
6:36 AM -20.2 °F -37.3 °F - N/A% 30.42 in 10.0 mi WNW 6.9 mph - N/A   Clear
6:56 AM -23.8 °F -41.6 °F - N/A% 30.41 in 10.0 mi NW 6.9 mph - N/A   Clear
7:16 AM -25.6 °F -46.8 °F - N/A% 30.42 in 10.0 mi NW 9.2 mph - N/A   Clear
7:36 AM -25.6 °F -48.0 °F - N/A% 30.41 in 10.0 mi NW 10.4 mph - N/A   Clear
7:56 AM -25.6 °F -48.0 °F - N/A% 30.42 in 10.0 mi NW 10.4 mph - N/A   Clear
8:16 AM -25.6 °F -39.8 °F - N/A% 30.42 in 10.0 mi North 4.6 mph - N/A   Clear
8:36 AM -23.8 °F -44.5 °F - N/A% 30.42 in 10.0 mi NNW 9.2 mph - N/A   Clear
8:56 AM -23.8 °F -44.5 °F - N/A% 30.42 in 10.0 mi NW 9.2 mph - N/A   Clear
9:16 AM -25.6 °F -46.8 °F - N/A% 30.40 in 10.0 mi North 9.2 mph - N/A   Clear
9:36 AM -23.8 °F -44.5 °F - N/A% 30.38 in 10.0 mi North 9.2 mph - N/A   Clear
9:56 AM -18.4 °F -28.9 °F - N/A% 30.35 in 10.0 mi NW 3.5 mph - N/A   Clear
10:16 AM -22.0 °F -43.6 °F - N/A% 30.33 in 10.0 mi NW 10.4 mph - N/A   Clear
10:36 AM -25.6 °F -49.2 °F - N/A% 30.33 in 10.0 mi NW 11.5 mph - N/A   Clear
10:56 AM -25.6 °F -50.2 °F - N/A% 30.32 in 10.0 mi NW 12.7 mph - N/A   Clear
11:16 AM -25.6 °F -50.2 °F - N/A% 30.32 in 10.0 mi NW 12.7 mph - N/A   Clear
11:36 AM -25.6 °F -50.2 °F - N/A% 30.30 in 10.0 mi NW 12.7 mph - N/A   Clear
11:56 AM -25.6 °F -50.2 °F - N/A% 30.30 in 10.0 mi NW 12.7 mph - N/A   Clear
12:16 PM -25.6 °F -48.0 °F - N/A% 30.29 in 10.0 mi NW 10.4 mph - N/A   Clear
12:36 PM -23.8 °F -44.5 °F - N/A% 30.27 in 10.0 mi NW 9.2 mph - N/A   Clear
12:56 PM -23.8 °F -44.5 °F -29.2 °F 76% 30.27 in 10.0 mi WNW 9.2 mph - N/A   Clear
1:16 PM -22.0 °F -42.3 °F - N/A% 30.27 in 10.0 mi WNW 9.2 mph - N/A   Clear
1:36 PM -20.2 °F -40.1 °F -29.2 °F 63% 30.26 in 10.0 mi NW 9.2 mph - N/A   Clear
1:56 PM -18.4 °F -31.4 °F -29.2 °F 58% 30.28 in 10.0 mi WSW 4.6 mph - N/A   Clear
2:16 PM -18.4 °F -37.9 °F -22.0 °F 84% 30.27 in 10.0 mi WNW 9.2 mph - N/A   Clear
2:36 PM -14.8 °F -32.2 °F -23.8 °F 64% 30.26 in 10.0 mi West 8.1 mph - N/A   Clear
2:56 PM -16.6 °F -34.4 °F - N/A% 30.25 in 10.0 mi WNW 8.1 mph - N/A   Clear
3:16 PM -9.4 °F -22.7 °F - N/A% 30.22 in 10.0 mi NNW 5.8 mph - N/A   Clear
3:36 PM -9.4 °F -26.8 °F - N/A% 30.21 in 10.0 mi North 9.2 mph - N/A   Clear
3:56 PM -11.2 °F -23.0 °F - N/A% 30.20 in 10.0 mi North 4.6 mph - N/A   Clear
4:16 PM -9.4 °F -24.3 °F - N/A% 30.20 in 10.0 mi WNW 6.9 mph 16.1 mph N/A   Clear
4:36 PM -4.0 °F -16.3 °F - N/A% 30.19 in 10.0 mi NNE 5.8 mph - N/A   Clear
4:56 PM -0.4 °F -16.7 °F -22.0 °F 36% 30.17 in 10.0 mi ENE 10.4 mph 19.6 mph N/A   Clear
5:16 PM -0.4 °F -21.2 °F -22.0 °F 36% 30.13 in 10.0 mi ENE 17.3 mph - N/A   Clear
5:36 PM -5.8 °F -18.4 °F -23.8 °F 42% 30.14 in 10.0 mi NNE 5.8 mph - N/A   Clear
5:56 PM 1.4 °F -12.5 °F -11.2 °F 56% 30.16 in 10.0 mi ENE 8.1 mph - N/A   Clear
6:16 PM -0.4 °F -21.7 °F -22.0 °F 36% 30.16 in 10.0 mi East 18.4 mph 26.5 mph N/A   Clear
6:36 PM -0.4 °F -22.8 °F -16.6 °F 46% 30.15 in 10.0 mi East 20.7 mph 25.3 mph N/A   Clear
6:56 PM -0.4 °F -21.2 °F -18.4 °F 43% 30.16 in 10.0 mi ESE 17.3 mph 20.7 mph N/A   Clear
7:16 PM 1.4 °F -21.0 °F -14.8 °F 47% 30.15 in 10.0 mi East 21.9 mph 25.3 mph N/A   Clear
7:36 PM 1.4 °F -18.8 °F -16.6 °F 43% 30.15 in 10.0 mi East 17.3 mph 28.8 mph N/A   Clear
7:56 PM -2.2 °F -19.9 °F -20.2 °F 42% 30.13 in 10.0 mi East 11.5 mph - N/A   Clear
8:16 PM 1.4 °F -21.0 °F -7.6 °F 66% 30.12 in 10.0 mi ENE 21.9 mph - N/A   Clear
8:36 PM 1.4 °F -19.4 °F -18.4 °F 39% 30.12 in 10.0 mi NE 18.4 mph - N/A   Clear
8:56 PM -0.4 °F -23.3 °F -16.6 °F 46% 30.12 in 10.0 mi NE 21.9 mph - N/A   Clear
9:16 PM -0.4 °F -21.2 °F -11.2 °F 60% 30.12 in 10.0 mi ENE 17.3 mph - N/A   Clear
9:36 PM -0.4 °F -22.8 °F -18.4 °F 43% 30.11 in 10.0 mi East 20.7 mph - N/A   Clear
9:56 PM -0.4 °F -23.3 °F -18.4 °F 43% 30.11 in 10.0 mi East 21.9 mph - N/A   Clear
10:16 PM -0.4 °F -23.3 °F -9.4 °F 66% 30.11 in 10.0 mi ENE 21.9 mph 25.3 mph N/A   Clear
10:36 PM -0.4 °F -24.7 °F -18.4 °F 43% 30.09 in 10.0 mi ENE 25.3 mph 28.8 mph N/A   Clear
10:56 PM -0.4 °F -22.8 °F -14.8 °F 51% 30.10 in 10.0 mi ENE 20.7 mph - N/A   Clear
11:16 PM -0.4 °F -24.3 °F -13.0 °F 55% 30.09 in 10.0 mi ENE 24.2 mph - N/A   Clear
11:36 PM -0.4 °F -24.7 °F -23.8 °F 32% 30.07 in 10.0 mi ENE 25.3 mph - N/A   Clear
11:56 PM -0.4 °F -25.2 °F -47.2 °F 9% 30.06 in 10.0 mi ENE 26.5 mph 31.1 mph N/A   Clear